Regional Weather Roundup
Issued by NWS Green Bay, WI

Home | Current Version | Previous Version | Text Only | Print | Product List | Glossary On
Versions: 1 2 3 4 5 6 7 8 9 10 11 12 13 14 15 16 17 18 19 20 21 22 23 24 25 26 27 28 29 30 31 32 33 34 35 36 37 38 39 40 41 42 43 44 45 46 47 48 49 50
000
ASUS43 KGRB 051511
RWRGRB

NORTH-CENTRAL AND NORTHEAST WISCONSIN REGIONAL WEATHER ROUNDUP
NATIONAL WEATHER SERVICE GREEN BAY WI
900 AM CST MON DEC 05 2016

WIZ005-009-010>012-018-019-051600-
NORTH CENTRAL WISCONSIN

CITY           SKY/WX    TMP DP  RH WIND       PRES   REMARKS
IRONWOOD       CLOUDY    33  27  78 SW7       29.81R
MANITOWISH WTR CLOUDY    31  31  99 W6        29.80R
ARBOR VITAE    PTSUNNY   32  29  87 W5        29.81R
EAGLE RIVER    CLOUDY    32  28  87 W9        29.81S
LAND O LAKES   CLOUDY    32  29  90 W5        29.82R
RHINELANDER    MOSUNNY   32  28  85 W9        29.82S
PHILLIPS       CLOUDY    29  28  96 SW5       29.81S
ANTIGO         CLOUDY    30  28  93 W6        29.85S
TOMAHAWK       CLOUDY    31  28  90 CALM      29.84S
MERRILL        CLOUDY    31  31  99 SW6       29.86S
$$

WIZ013-073-051600-
NORTHEAST WISCONSIN

CITY           SKY/WX    TMP DP  RH WIND       PRES   REMARKS
IRON MOUNTAIN  CLOUDY    34  27  75 W9        29.82R
MARINETTE      CLOUDY    34  31  88 SW7       29.90R
OCONTO         PTSUNNY   33  31  91 W5        29.90R
$$

WIZ017-030-035>037-045-051600-
CENTRAL WISCONSIN

CITY           SKY/WX    TMP DP  RH WIND       PRES   REMARKS
MEDFORD        FOG       30  29  98 S6        29.83R VSB 3/4
WAUSAU         MOSUNNY   31  28  89 S6        29.85S
MOSINEE        PTSUNNY   30  30 100 S3        29.87S
MARSHFIELD     CLOUDY    31  30  96 S8        29.85R FOG
WISC RAPIDS    CLOUDY    33  32  96 SW8       29.90R
STEVENS POINT  CLOUDY    31  30  96 SW7       29.89R
WAUPACA        CLOUDY    35  32  88 CALM      29.91R
SHAWANO        CLOUDY    35  32  88 CALM      29.89S
CLINTONVILLE   CLOUDY    34  32  93 SW5       29.90R
WAUTOMA        CLOUDY    33  31  92 SW7       29.92R
$$

WIZ038-039-048-051-051600-
FOX VALLEY

CITY           SKY/WX    TMP DP  RH WIND       PRES   REMARKS
NWS GREEN BAY  CLOUDY    34  32  92 SW7       29.91R
APPLETON       PTSUNNY   34  32  93 SW8       29.90R
OSHKOSH        PTSUNNY   33  28  81 SW9       29.92R
FOND DU LAC    CLOUDY    34  29  82 SW12      29.93R
$$

WIZ022-050-052-051600-
EAST CENTRAL WISCONSIN

CITY           SKY/WX    TMP DP  RH WIND       PRES   REMARKS
EPHRAIM        CLOUDY    36  30  79 W13       29.88S
WASHINGTON ISL CLOUDY    37  30  73 W13G23    29.87R
STURGEON BAY   MOSUNNY   37  31  78 SW8       29.91R
MANITOWOC      SUNNY     36  32  85 MISG      29.94R
SHEBOYGAN      CLOUDY    32  29  88 SW7       29.94R
$$

LMZ563-521-522-541>543-051600-
LAKESHORE

STATION/POSITION TIME  TEMP    WIND        PRES    VSBY  WAVE
                       AIR SEA DIR/SP/G                  HT/PER
                 (UTC) (F)     (DEG/KT/KT) (MB)    (MI)  (FT/S)
SHEBOYGAN LKSHOR 1500   35     220/  8/ 10 1014.5R
KEWAUNEE LKSHORE 1442   35     230/  3/  5 1012.5F
ALGOMA MARINA    1351          260/  8/ 12   N/A
NORTHPORT PIER   1440   39     250/ 10/ 17 1011.9R
SISTER BAY LKSHO 1408   41     300/ 21/ 24   N/A
CHAMBERS ISLAND  1440   37     220/  8/ 15 1011.9R
MENOMINEE LKSHOR 1442   34     210/  7/  9 1011.6R
$$




USA.gov is the U.S. government's official web portal to all federal, state and local government web resources and services.